sat.trackr.live / text

‹ back to catalog

STARLINK-35500

NORAD 66093 · 2025-236H

PAYLOAD ACTIVE UNKNOWN

§ Identity

Operator
Country
US
Launch date
2025-10-19
Launch site
AFWTR
Launch vehicle
Mass (kg)
RCS (m²)

Purposes: comms

External: N2YO · Heavens-Above · Gunter

§ Orbital elements

Epoch: 2026-09-20T05:41:24.758304Z

Period
93.85 min
Inclination
53.1601°
Eccentricity
0.0000744
Mean motion
15.34410745 rev/d
Perigee alt
462.2 km
Apogee alt
463.2 km
Semi-major
6,840.8 km
B*
5.4195e-4
RAAN
278.5931°
Arg perigee
71.6571°
Mean anomaly
288.4512°
Rev number
5,275

§ Raw data

STARLINK-355001 66093U 25236H   26263.23709211  .00017985  00000+0  54195-3 0  99922 66093  53.1601 278.5931 0000744  71.6571 288.4512 15.34410745 52752

JSON: /api/v1/satellites/66093 · /tle

For live sub-satellite position, see the globe view (requires WebGL).

§ Visibility from observer

Set your observer location to see the next 7 days of passes ≥ 10°. The values pass through the URL so the page stays shareable.

No JS? Fill the form by hand. The geolocation button needs JavaScript.